Skip Page Navigation
NASA JPL Caltech
NASA Logo - Jet Propulsion Laboratory + View the NASA Portal
+ Center for Near-Earth Object Studies
JPL Home Earth Solar System Stars & Galaxies Technology
JPL Solar System Dynamics
BODIES ORBITS EPHEMERIDES TOOLS PHYSICAL DATA DISCOVERY FAQ SITE MAP
JPL Small-Body Database Browser
Search: [ help ]  
85454 (1997 GH35)
Classification: Main-belt Asteroid          SPK-ID: 2085454
Ephemeris | Orbit Diagram | Orbital Elements | Mission Design | Physical Parameters | Discovery Circumstances ]

[ show orbit diagram ]
Orbital Elements at Epoch 2459396.5 (2021-Jul-01.0) TDB
Reference: JPL 26 (heliocentric ecliptic J2000)
 Element Value Uncertainty (1-sigma)   Units 
e .04964256304665417 3.6755e-08  
a 2.291421868257216 6.9538e-09 au
q 2.177669813695775 8.4971e-08 au
i 6.264123387512426 4.1178e-06 deg
node 185.5968837532123 2.5658e-05 deg
peri 353.5104150725353 3.9515e-05 deg
M 26.31224464458642 2.9546e-05 deg
tp 2459303.899910854218
(2021-Mar-30.39991085)
0.00010404 TDB
period 1266.93988075777
3.47
5.7672e-06
1.579e-08
d
yr
n .2841492366509767 1.2935e-09 deg/d
Q 2.405173922818657 7.299e-09 au
  Orbit Determination Parameters
   # obs. used (total)      952  
   data-arc span      8833 days (24.18 yr)  
   first obs. used      1997-04-06  
   last obs. used      2021-06-12  
   planetary ephem.      DE441  
   SB-pert. ephem.      SB441-N16  
   condition code      0  
   norm. resid. RMS      .52199  
   source      ORB  
   producer      Otto Matic  
   solution date      2021-Jul-08 23:26:09  

Additional Information
 Earth MOID = 1.18114 au 
 Jupiter MOID = 2.55054 au 
 T_jup = 3.588 
[ show covariance matrix ]

Ephemeris | Orbit Diagram | Orbital Elements | Mission Design | Physical Parameters | Discovery Circumstances ]

Physical Parameter Table
Parameter Symbol Value Units Sigma Reference Notes
absolute magnitude H 16.21   n/a MPCxxxxx  

85454 (1997 GH35)          Discovered 1997-Apr-06 by LINEAR at Socorro
Reference: 20040830/Numbers.arcLast Updated: 2004-09-06

Alternate Designations
 1997 GH35 = 1998 TE4 = 2000 CU43 
Ephemeris | Orbit Diagram | Orbital Elements | Mission Design | Physical Parameters | Discovery Circumstances ]
ABOUT SSD CREDITS/AWARDS PRIVACY/COPYRIGHT GLOSSARY LINKS
FirstGov 2021-Aug-04 20:34 UT
(server date/time)  
NASA Home Page
Site Manager:   Ryan S. Park
Webmaster  Alan B. Chamberlin